Regional Weather Roundup
Issued by NWS Northern Indiana

Home | Current Version | Previous Version | Text Only | Print | Product List | Glossary Off
Versions: 1 2 3 4 5 6 7 8 9 10 11 12 13 14 15 16 17 18 19 20 21 22 23 24 25 26 27 28 29 30 31 32 33 34 35 36 37 38 39 40 41 42 43 44 45 46 47 48 49 50

000
ASUS43 KIWX 212010
RWRIWX

KIWX WEATHER ROUNDUP
NATIONAL WEATHER SERVICE NORTHERN INDIANA
400 PM EDT SAT OCT 21 2017

NOTE: "FAIR" INDICATES FEW OR NO CLOUDS BELOW 12,000 FEET WITH NO
SIGNIFICANT WEATHER AND/OR OBSTRUCTIONS TO VISIBILITY.

* THESE STATIONS ARE NOT UNDER NWS QUALITY CONTROL. THEY ALSO MAY NOT
  REPORT WEATHER SUCH AS PRECIPITATION OR FOG.

INZ001>027-212100-
NORTHERN INDIANA

CITY           SKY/WX    TMP DP  RH WIND       PRES   REMARKS
VALPARAISO     MOSUNNY   76  57  51 S15G24    30.08F
MICHIGAN CITY* MOSUNNY   73  54  49 S10G20    30.07F
LAPORTE*       MOSUNNY   73  56  53 SW14G21   30.09S
KNOX*          MOSUNNY   73  54  49 S16       30.09S
SOUTH BEND     PTSUNNY   75  55  49 S15G22    30.09F
GOSHEN         MOSUNNY   74  46  36 S16       30.10F
MONTICELLO*    SUNNY     76  54  46 S9G17     30.09F
LOGANSPORT*    SUNNY     73  52  46 S16G22    30.12F
WARSAW*        MOSUNNY   73  52  46 S10       30.12F
AUBURN*        MOSUNNY   72  41  33 S7        30.15F
FORT WAYNE     PTSUNNY   74  39  28 S13       30.15F
HUNTINGTON*    CLOUDY    74  45  35 S8        30.15F
PERU/GRISSOM   MOSUNNY   74  53  46 S13       30.12F

$$
INZ028>050-212100-
CENTRAL INDIANA

CITY           SKY/WX    TMP DP  RH WIND       PRES   REMARKS
LAFAYETTE      SUNNY     75  57  53 S14G22    30.09F
KOKOMO*        MOSUNNY   75  53  46 S14G21    30.14F
MUNCIE*        SUNNY     76  42  29 S10       30.17S
INDIANAPOLIS   MOSUNNY   76  50  40 S14       30.14F

$$
MIZ043>046-050>051-056>058-064>065-071>073-077>080-212100-
SOUTHWEST LOWER MICHIGAN

CITY           SKY/WX    TMP DP  RH WIND       PRES   REMARKS
BATTLE CREEK   SUNNY     74  42  31 SW17      30.12F
BENTON HARBOR  PTSUNNY   75  54  47 S15       30.07S
COLDWATER*     SUNNY     74  40  28 S10G18    30.13F
HILLSDALE*     MOSUNNY   73  46  38 S12G18    30.15S
HOLLAND        SUNNY     74  49  41 S14       30.06F
GRAND RAPIDS   PTSUNNY   75  45  34 S17       30.08F
KALAMAZOO      SUNNY     74  42  31 S9        30.10F
STURGIS*       SUNNY     73  45  36 S12G18    30.12S
THREE RIVERS*  FAIR      73  44  35 S10G16    30.11F

$$
OHZ001>008-015>018-024>025-212100-
NORTHWEST OHIO

CITY           SKY/WX    TMP DP  RH WIND       PRES   REMARKS
WAUSEON*       FAIR      73  52  46 S10       30.16F
DEFIANCE       CLOUDY    74  50  42 S12       30.16F
FINDLAY        CLOUDY    76  50  40 S10       30.16F
TOLEDO EXPRESS CLOUDY    75  54  47 S5        30.15F
TOLEDO METCALF CLOUDY    74  54  49 S10       30.18F
LIMA           MOSUNNY   75  46  35 S12       30.18F

$$
AND FOR LAKE MICHIGAN COASTAL AND OPEN LAKE BUOY OBSERVATIONS

STATION/POSITION TEMP    WIND        PRES    VSBY  WAVE
                 AIR SEA DIR/SP/G                  HT/PER
                 (F)     (DEG/KT/KT) (MB)    (MI)  (FT/S)
CALUMET HARBOR    74     170/ 11/ 16 1015.7F
MICHIGAN CITY     73     170/ 16/ 22   N/A
BURNS HARBOR      73     190/ 15/ 21 1017.9S
SAINT JOSEPH      73     200/  8/ 16 1019.0
SOUTH LAKE BUOY   64 61  150/ 17/ 21 1016.7          4/ 5
4 MI NW BRIDGMAN  66 59  210/ 10/ 16 1018.0          2/ 3
MICHIGAN CITY     69 58  190/ 14/ 21   N/A           1/ 2

$$
&&



USA.gov is the U.S. government's official web portal to all federal, state and local government web resources and services.